Lapse_Rate
7.0 7.0 7.0 6.6 6.4 6.4 6.3 6.3 6.5 6.4 6.4 6.6 6.7 6.7 6.7 6.5 6.6 6.3 6.3 6.3 6.1 6.1 6.1 6.0 6.2 5.9 6.3 6.4 6.2 5.8 5.8 5.6 5.8 5.8 5.7 5.4 5.6 5.3 5.7 6.0 6.3 6.3 6.0
7.2 7.0 6.6 6.5 6.4 6.3 6.4 6.4 6.5 6.6 6.6 6.5 6.4 6.5 6.6 6.6 6.5 6.4 6.3 6.2 6.4 6.3 6.1 5.8 5.9 6.0 6.0 6.0 6.3 6.2 5.9 5.8 5.8 5.6 5.8 5.3 5.7 6.0 5.8 5.9 6.2 6.3 5.9
7.0 6.9 7.0 7.0 6.9 6.5 6.4 6.4 6.2 6.3 6.3 6.5 6.5 6.4 6.2 6.2 6.3 6.3 6.0 6.0 6.2 6.2 6.4 6.3 5.9 6.0 6.3 6.1 6.0 6.2 6.2 6.0 6.1 6.1 6.0 5.8 5.7 5.9 6.3 6.2 6.4 6.4 5.9
7.4 7.2 7.1 6.9 6.7 6.5 6.3 6.1 6.0 6.1 6.2 6.3 6.3 6.3 6.2 6.1 6.1 6.0 5.9 6.0 5.9 6.1 6.3 6.2 6.2 5.9 5.9 5.9 5.9 5.9 5.9 6.0 6.0 5.9 6.1 6.1 6.2 6.1 5.7 6.0 6.3 6.4 6.2
6.8 6.8 6.7 6.7 6.7 6.6 6.7 6.8 6.7 6.6 6.5 6.1 6.0 6.0 5.7 5.6 5.6 5.8 5.8 5.7 5.7 5.8 6.0 6.3 6.4 6.2 6.0 6.1 6.1 6.1 5.8 5.7 5.8 5.8 6.0 6.1 6.2 5.9 5.8 5.4 5.4 5.7 6.1
6.5 6.5 6.6 6.8 6.8 6.8 6.8 6.8 6.8 6.7 6.4 6.0 5.8 5.7 5.5 5.2 5.1 5.0 5.2 5.4 5.6 5.7 5.7 5.8 6.0 6.2 6.0 6.2 6.2 6.3 6.1 6.0 5.9 5.9 5.9 6.0 6.1 5.8 5.4 5.4 5.4 5.2 5.0
6.8 6.8 6.6 6.5 6.4 6.4 6.3 6.2 6.2 6.1 6.1 6.1 6.0 5.6 5.5 5.4 5.3 5.1 5.0 5.0 5.2 5.2 5.4 5.7 5.8 5.9 5.9 6.0 6.4 6.1 6.2 6.0 5.8 6.0 5.9 6.0 6.0 5.9 5.5 5.2 5.0 4.6 4.7
6.3 6.4 6.4 6.3 6.4 6.4 6.2 5.9 5.8 5.9 5.8 5.8 5.9 5.9 5.7 5.4 5.2 5.0 5.0 5.0 5.1 5.3 5.2 5.1 5.3 5.6 5.6 5.7 5.9 6.0 6.2 6.1 6.2 6.1 6.0 6.3 6.0 5.7 5.4 5.3 4.9 4.7 4.8
6.1 6.0 5.7 5.9 6.1 6.2 6.2 5.9 5.7 5.5 5.7 5.8 5.8 5.8 5.8 5.5 5.4 5.2 4.9 5.1 5.2 5.4 5.6 5.5 5.3 5.1 5.4 5.3 5.5 5.6 5.6 5.8 6.0 6.0 5.8 6.0 6.0 5.9 5.6 5.3 5.4 5.3 5.4
5.5 5.5 5.7 5.9 5.8 5.8 5.8 5.8 6.0 6.0 5.8 5.7 5.8 5.7 5.7 5.5 5.4 5.6 5.3 5.0 5.1 5.3 5.2 5.3 5.3 5.2 5.2 5.0 5.2 5.3 5.2 5.3 5.2 5.4 5.6 5.7 5.7 5.7 5.6 5.3 5.5 5.5 5.4
5.9 5.7 5.6 5.7 5.9 5.7 5.8 5.8 5.8 5.9 5.9 5.8 5.8 5.7 5.6 5.5 5.6 5.3 5.2 5.1 5.1 5.3 5.4 5.4 5.4 5.4 5.4 5.2 5.2 5.1 5.1 5.4 5.1 5.1 5.3 5.4 5.7 5.8 6.0 5.8 5.6 5.5 5.7
5.6 5.6 5.6 5.5 5.3 5.3 5.3 5.4 5.0 4.8 5.5 5.7 5.6 5.6 5.6 5.5 5.5 5.4 5.4 5.1 5.2 5.3 5.4 5.3 5.3 5.2 5.3 5.5 5.5 5.4 5.2 4.9 5.0 5.1 5.0 5.2 5.4 5.8 5.7 5.4 5.4 5.5 5.9
5.4 5.3 5.3 5.4 5.0 4.8 4.7 4.6 4.5 4.5 4.7 5.1 5.2 5.3 5.2 5.2 5.3 5.6 5.6 5.5 4.9 4.5 5.0 5.0 5.0 5.1 5.2 5.6 5.9 5.6 5.2 5.0 5.1 5.0 5.1 5.3 5.6 5.5 5.3 5.1 5.3 5.5 5.7
5.7 5.6 5.7 5.5 5.1 4.7 4.4 4.5 4.7 4.8 5.2 5.5 5.7 5.4 5.0 5.1 5.3 5.6 4.8 4.7 4.7 4.6 4.9 5.2 5.5 5.4 5.2 6.2 6.2 6.2 5.9 5.5 5.3 5.0 5.0 5.2 5.0 4.4 4.7 5.2 5.1 5.4 5.5
5.8 5.7 5.4 4.9 4.9 4.5 4.1 4.3 4.5 4.8 5.0 5.5 5.8 5.9 5.4 5.1 5.4 5.5 5.3 5.0 4.8 4.4 4.6 4.4 4.6 4.7 5.2 5.7 6.1 6.3 6.2 5.8 5.5 5.4 5.0 4.8 4.9 5.0 4.9 5.0 5.1 5.2 5.4
5.5 5.3 5.0 4.5 4.2 4.2 4.4 4.4 4.3 4.5 4.8 5.3 5.6 5.7 5.7 5.5 5.5 5.5 5.5 5.2 4.7 4.2 4.1 4.5 4.6 4.7 5.2 5.4 5.9 6.1 6.0 6.0 5.7 5.7 5.4 5.0 4.8 5.0 5.1 5.2 4.8 5.0 5.2
4.8 4.6 4.5 4.3 4.1 4.1 4.2 4.0 3.9 4.5 4.2 4.5 4.9 5.1 5.3 5.4 5.3 5.3 5.5 5.4 4.9 4.8 4.8 5.0 5.3 5.2 5.0 5.4 5.8 6.2 6.4 6.4 5.9 5.6 5.7 5.4 5.1 5.0 5.0 5.1 5.2 5.2 5.1
4.6 4.5 4.5 4.4 4.4 4.3 4.1 4.1 4.0 3.9 4.0 4.4 4.3 4.4 4.9 4.6 5.0 5.2 5.2 5.1 5.4 5.5 5.3 5.1 5.3 5.4 5.5 5.6 6.0 6.1 6.4 6.7 6.3 6.1 5.8 5.6 5.6 5.3 5.1 5.2 5.4 5.2 5.2
4.8 4.8 4.8 4.8 4.9 4.9 4.9 4.6 4.3 4.0 3.8 3.9 4.3 4.5 4.7 4.8 4.9 5.2 5.4 5.5 5.7 5.8 5.9 5.7 5.6 5.5 5.4 5.7 6.1 6.1 6.4 6.7 6.6 6.2 5.9 5.8 6.1 6.0 5.6 5.4 5.2 5.5 5.5
4.9 4.8 4.8 4.9 5.1 5.2 5.0 4.7 4.6 4.3 4.1 4.1 4.3 4.8 4.9 4.8 5.0 5.3 5.6 5.8 5.8 5.8 6.1 6.0 5.8 5.5 5.8 5.8 6.0 6.2 6.3 6.6 6.5 6.3 6.1 6.1 6.1 6.1 6.1 5.9 5.7 5.6 5.4
4.6 5.0 4.9 4.6 4.5 4.4 4.6 4.6 4.3 4.4 4.5 4.6 4.8 5.0 5.2 5.1 5.2 5.4 5.7 5.6 5.8 5.7 5.8 5.9 5.9 5.6 5.7 5.9 5.9 6.0 6.3 6.4 6.5 6.3 6.1 6.3 6.2 6.1 6.2 6.2 6.1 6.1 5.8
4.7 5.1 5.1 5.0 5.0 4.8 4.5 4.5 4.3 4.4 4.6 4.9 5.0 5.2 5.2 5.0 5.1 5.5 5.7 5.7 5.9 5.8 6.2 6.1 6.0 5.7 5.6 5.9 5.7 5.8 6.1 6.3 6.1 6.0 6.0 6.2 6.3 6.3 6.2 6.2 6.4 6.6 6.4
5.2 5.2 5.0 5.0 4.8 4.7 4.7 4.9 4.8 4.8 5.1 5.3 5.3 5.5 5.4 5.2 5.3 5.4 5.6 5.9 6.1 6.1 6.2 6.1 6.2 6.0 5.8 6.1 5.9 5.5 5.5 5.8 6.0 6.0 5.9 6.0 6.1 6.2 6.1 6.1 6.0 6.1 6.3
4.9 4.7 4.6 4.6 4.7 4.6 5.0 5.6 5.6 5.5 5.7 5.6 5.3 5.3 5.6 5.4 5.5 5.5 5.8 5.7 6.0 6.2 6.2 6.1 6.0 6.0 5.7 5.8 5.8 5.2 5.3 5.5 5.7 5.3 5.7 5.9 6.1 6.2 6.0 6.0 5.9 5.7 5.7
4.6 4.5 4.4 4.4 4.7 4.8 5.1 5.6 6.0 5.9 5.8 5.5 5.2 5.6 5.4 5.5 5.6 5.7 5.9 5.7 5.6 6.1 6.2 6.2 6.2 5.6 5.6 5.6 5.1 4.9 5.2 5.3 5.4 5.5 5.6 6.2 5.5 6.2 6.0 6.0 6.0 6.2 5.9
4.4 4.3 4.2 4.2 4.2 4.7 4.6 4.8 5.5 5.7 5.4 5.4 5.6 5.5 5.5 5.6 5.7 5.9 5.8 5.5 5.5 5.8 5.8 5.9 6.1 5.9 5.9 5.8 5.8 5.2 4.9 5.4 5.8 5.8 5.8 5.8 5.8 6.0 6.2 6.4 6.2 6.0 5.9
Wind_Speed
6 7 6 3 5 6 4 2 5 5 3 3 5 6 5 6 7 9 11 11 10 10 11 10 12 9 7 3 4 3 5 4 5 7 9 12 4 4 5 7 6 12 17
7 4 4 4 2 4 6 5 5 1 3 4 5 5 6 7 7 7 10 10 13 13 13 13 10 8 9 7 5 6 5 7 4 8 7 8 5 5 5 5 4 10 5
8 9 6 4 4 2 5 6 5 4 3 4 5 6 6 6 7 8 8 10 12 14 13 12 14 11 10 8 10 8 7 7 6 4 7 4 2 2 4 5 5 6 11
8 8 6 5 6 7 8 7 8 6 5 5 6 6 6 8 8 9 9 8 11 12 15 15 15 15 12 12 10 9 7 7 5 6 7 5 3 4 4 4 5 5 5
4 4 3 3 4 4 5 6 7 7 7 7 8 8 8 9 9 6 5 6 7 10 12 14 14 15 18 13 9 11 10 9 8 5 7 7 8 7 8 5 7 4 6
2 3 4 4 4 4 4 6 6 8 9 9 9 8 9 8 12 13 7 8 7 9 11 11 11 9 9 13 15 15 10 10 11 7 7 9 10 7 8 8 3 2 2
2 3 4 4 5 5 6 7 7 8 9 10 11 10 9 10 12 13 9 8 9 9 9 9 9 8 8 10 11 13 16 15 14 11 11 11 11 7 6 4 4 3 5
4 4 5 5 6 6 7 8 8 9 10 10 11 10 10 9 12 14 11 7 9 10 10 10 8 9 8 6 8 8 10 12 14 11 12 12 12 12 9 6 5 3 3
6 5 5 6 6 6 8 9 9 11 11 11 11 11 12 11 13 13 10 10 11 12 11 10 10 11 10 9 8 5 6 8 9 13 14 13 14 13 10 6 8 7 6
7 6 6 6 7 9 9 11 11 12 13 11 13 13 14 13 13 14 12 9 12 10 11 11 14 15 15 13 9 8 7 7 6 7 8 7 12 15 14 11 10 10 8
10 8 8 8 9 10 11 10 10 11 12 13 13 12 11 11 12 14 16 11 11 12 10 9 9 16 19 17 15 10 11 8 8 6 6 5 7 9 10 12 13 11 11
11 11 10 9 9 11 13 12 13 12 14 12 13 11 10 11 14 16 21 20 20 13 12 10 10 6 12 14 11 12 10 4 6 9 9 8 8 7 8 12 14 12 13
11 11 11 10 9 11 11 12 10 10 11 11 9 9 9 9 8 9 11 16 18 12 10 10 11 9 10 9 14 14 11 5 7 8 10 11 10 11 8 6 10 13 14
13 12 11 10 10 12 10 10 10 9 9 9 8 6 7 7 8 9 1 4 7 5 7 6 8 11 11 10 7 8 7 8 9 9 10 10 8 6 8 7 7 11 7
11 12 12 11 12 12 11 9 10 11 10 11 11 9 9 10 9 4 8 10 7 6 3 5 6 6 9 9 9 10 9 10 11 11 10 10 10 8 9 9 9 9 10
10 10 9 10 10 10 10 11 14 16 18 16 17 13 9 12 15 15 16 11 6 7 4 7 8 8 9 6 9 9 9 11 11 11 10 10 8 6 7 8 9 9 9
11 12 10 11 11 11 11 11 11 12 15 14 16 16 11 14 16 19 13 14 12 6 9 9 11 11 10 9 9 10 10 9 11 9 8 8 9 10 9 10 9 9 10
12 14 11 11 10 10 11 11 11 12 12 12 11 9 8 10 18 18 17 5 9 8 9 11 12 11 11 11 10 10 11 9 9 9 10 10 11 9 9 8 8 9 9
12 10 10 10 11 12 12 11 11 11 11 12 12 12 12 12 16 19 8 8 12 11 11 12 12 12 12 12 11 11 12 11 10 9 9 9 10 9 11 10 9 10 13
12 18 17 10 11 12 11 10 10 11 11 10 10 13 12 11 10 11 10 7 10 11 11 13 13 11 12 12 12 12 11 11 11 10 10 10 10 10 10 11 11 10 9
11 12 22 12 11 10 9 11 10 11 11 11 11 11 16 11 11 13 13 12 11 13 12 11 12 12 11 11 11 10 12 11 11 10 10 10 11 10 11 11 12 10 9
12 13 12 11 11 12 11 10 11 11 13 11 11 12 15 10 12 12 12 13 13 14 11 12 12 10 11 11 12 12 11 10 11 11 10 11 11 11 10 11 12 10 8
11 12 13 12 11 16 11 11 9 10 12 10 11 11 11 11 10 9 10 12 12 12 11 11 11 11 11 9 9 11 12 12 11 11 12 11 11 10 8 7 6 9 8
13 12 13 12 11 12 12 11 10 13 11 11 11 10 10 10 10 11 11 11 12 12 11 12 7 12 13 13 11 11 11 14 13 13 17 11 13 11 10 8 9 11 9
12 12 12 11 12 11 11 10 10 10 10 10 10 9 10 10 11 11 11 11 10 12 11 12 9 13 14 16 15 17 1 5 7 6 2 10 7 7 7 8 8 9 12
11 12 11 10 10 11 10 10 10 9 10 9 9 9 10 9 11 11 10 10 10 10 13 10 12 17 18 13 18 21 9 14 9 7 8 10 8 5 5 8 12 10 11
Wind_Direction
79 82 73 96 206 216 235 228 237 260 298 277 305 312 290 260 257 252 246 240 230 243 255 262 222 220 233 226 172 215 282 279 226 221 193 236 183 203 170 211 203 193 206
102 115 157 151 2 238 206 237 239 24 18 338 321 267 241 265 276 264 261 253 248 242 240 252 258 236 235 238 231 181 223 263 266 287 212 215 194 201 199 208 235 261 150
159 191 120 143 206 274 29 7 5 348 323 326 316 309 317 280 263 263 263 267 264 256 245 234 238 231 233 232 235 218 206 226 253 234 273 297 267 218 195 211 206 222 260
34 32 35 21 7 10 7 354 339 331 316 309 296 293 305 298 294 287 256 260 267 264 257 249 241 235 229 235 231 237 218 228 225 228 248 258 263 281 245 194 227 224 225
52 21 358 350 349 343 330 317 313 312 308 309 300 291 292 285 282 295 322 292 284 285 284 272 260 253 245 230 230 239 238 245 230 229 246 237 241 244 255 234 217 211 214
339 316 345 351 333 305 298 294 287 286 286 282 282 286 283 281 293 305 294 302 296 295 286 275 279 275 267 254 238 236 224 228 240 236 236 239 243 233 246 254 217 177 11
294 285 286 280 276 271 268 266 268 269 271 266 267 266 276 281 280 284 291 292 286 283 285 282 271 260 253 264 253 247 259 247 229 232 240 244 258 263 277 274 252 213 185
273 279 270 262 263 267 273 282 285 279 272 270 262 259 262 268 268 273 279 275 276 274 270 265 261 263 262 271 263 258 249 244 236 237 237 244 248 261 267 256 259 274 307
273 277 286 283 297 313 307 301 298 293 287 279 270 263 259 261 256 260 275 278 275 272 269 251 255 257 248 251 258 249 255 249 256 248 250 252 241 247 246 265 256 254 261
308 316 329 308 301 298 299 299 293 284 279 277 273 266 261 263 258 254 261 268 270 265 267 255 234 240 240 222 226 237 253 259 266 265 253 243 246 255 245 240 251 250 237
342 340 327 312 304 298 292 290 292 295 295 289 282 276 275 274 271 262 255 258 261 266 262 265 262 228 225 229 226 234 245 259 274 289 278 264 251 243 244 239 228 226 236
325 310 299 302 307 305 302 297 293 291 284 280 277 273 264 259 248 253 250 238 248 252 257 259 269 267 218 225 225 235 236 253 264 261 255 257 251 246 232 243 232 224 229
331 325 318 313 304 299 302 295 287 282 281 277 283 281 287 279 263 289 282 265 257 268 273 294 293 186 203 215 221 212 216 225 239 243 243 243 244 241 236 248 255 244 240
328 315 311 312 313 308 302 301 299 302 295 293 290 295 301 312 309 295 70 25 9 1 344 328 285 250 235 240 218 231 225 228 230 233 240 253 236 235 220 205 225 255 235
330 323 319 316 315 310 300 294 294 287 284 288 289 285 287 285 281 284 290 297 299 292 300 307 299 288 275 240 228 232 222 229 231 238 240 245 247 226 222 224 227 224 216
317 312 307 302 298 294 291 293 272 257 269 274 272 259 276 267 280 277 278 290 192 149 289 285 275 263 252 234 238 231 236 235 236 242 232 235 242 243 241 232 229 225 220
314 317 319 309 301 295 294 290 291 295 277 274 273 264 236 251 274 278 266 271 272 230 272 263 252 245 246 234 234 239 237 233 241 245 258 248 242 241 237 233 230 223 224
311 304 304 303 303 298 296 295 296 294 297 300 283 259 267 288 281 269 260 195 270 232 246 251 250 247 240 243 243 235 241 241 241 234 236 233 237 232 235 238 222 224 228
318 306 299 296 294 291 289 286 287 290 290 291 294 295 299 296 283 272 257 246 256 255 249 248 238 235 238 240 240 240 234 229 231 239 235 234 235 227 235 232 234 225 207
305 310 308 300 298 295 289 291 296 290 288 289 287 288 291 286 287 290 279 258 252 244 244 246 249 249 228 230 233 238 242 223 231 236 239 232 228 227 229 229 232 235 237
316 312 308 297 301 299 312 308 307 301 295 290 285 290 281 282 285 279 279 276 265 252 246 248 250 245 246 234 231 238 243 231 222 228 237 236 223 224 228 232 232 231 242
317 310 310 315 312 300 299 288 290 293 290 285 293 289 285 283 278 267 262 265 267 268 258 244 245 249 250 238 226 233 236 224 216 220 227 241 240 232 221 231 238 232 228
316 321 315 310 308 303 295 289 286 294 287 291 295 289 287 286 289 300 288 275 270 271 268 256 241 239 241 265 241 227 230 231 227 219 223 224 238 244 247 240 226 222 238
330 319 317 313 312 309 303 300 295 289 288 291 288 292 290 292 291 295 298 296 299 270 264 262 237 236 242 245 249 253 213 223 225 229 223 216 222 207 222 253 248 247 246
327 323 322 318 316 309 306 302 299 295 292 294 291 292 294 295 296 298 303 307 311 309 300 278 273 266 265 232 238 251 191 337 239 198 80 283 216 230 247 245 238 248 240
329 324 319 318 313 311 307 304 300 298 298 297 295 295 291 296 296 294 299 305 304 317 310 300 303 283 270 266 269 250 189 183 197 238 226 210 221 219 231 243 246 242 233